Regional Weather Roundup
Issued by NWS Sioux Falls, SD

Home | Current Version | Previous Version | Text Only | Print | Product List | Glossary On
Versions: 1 2 3 4 5 6 7 8 9 10 11 12 13 14 15 16 17 18 19 20 21 22 23 24 25 26 27 28 29 30 31 32 33 34 35 36 37 38 39 40 41 42 43 44 45 46 47 48 49 50
000
ASUS43 KFSD 180310
RWRFSD

WEATHER ROUNDUP FOR SE SOUTH DAKOTA/SW MINNESOTA/NW IOWA
NATIONAL WEATHER SERVICE SIOUX FALLS SD
900 PM CST SUN DEC 17 2017

NOTE: "FAIR" INDICATES FEW OR NO CLOUDS BELOW 12,000 FEET WITH NO
SIGNIFICANT WEATHER AND OR OBSTRUCTIONS TO VISIBILITY.


SDZ038>040-050-052>070-180400-
SOUTHEAST SOUTH DAKOTA

CITY           SKY/WX    TMP DP  RH WIND       PRES   REMARKS
BROOKINGS      CLOUDY    33  26  75 S8        29.92S WCI  26
CHAMBERLAIN    CLEAR     33  31  94 S7        29.88S WCI  26
HURON          CLOUDY    37  31  78 MISG      29.89F
MADISON        CLOUDY    32  32 100 SW8       29.92S WCI  25
MITCHELL       CLOUDY    37  29  72 S8        29.93F
SIOUX FALLS    CLOUDY    32  29  88 SW5       29.94F WCI  27
WINNER         FAIR      36  28  73 S15       29.87F
YANKTON        CLEAR     28  26  92 S3        29.97F
$$

MNZ071-072-080-081-089-090-097-098-180400-
SOUTHWEST MINNESOTA

CITY           SKY/WX    TMP DP  RH WIND       PRES   REMARKS
FAIRMONT       CLEAR     22  20  92 SW5       29.97F WCI  16
JACKSON        CLOUDY    23  21  93 CALM      29.95S FOG
LUVERNE        CLOUDY    30  27  86 SW6       29.96S WCI  24
MARSHALL       CLOUDY    31  27  85 S7        29.93F WCI  24
MONTEVIDEO     CLOUDY    28  27  93 S6        29.93S WCI  22
PIPESTONE      CLOUDY    30  27  86 SW6       29.92F WCI  24
REDWOOD FALLS  CLOUDY    29  25  85 SE6       29.95F WCI  23
TRACY          CLOUDY    32  28  86 SW9       29.93F WCI  24
WINDOM           N/A     27  16  63 CALM      29.94F HAZE
WORTHINGTON    CLOUDY    25  24  96 SW7       29.95S WCI  17
$$

IAZ001>003-012>014-020>022-031-032-NEZ013-014-SDZ071-180400-
NORTHWEST IOWA

CITY           SKY/WX    TMP DP  RH WIND       PRES   REMARKS
CHEROKEE       CLOUDY    32  28  86 CALM      29.98F
DENISON        CLOUDY    25  25 100 CALM      30.01S FOG
ESTHERVILLE    PTCLDY    21  20  96 S5        29.96S WCI  15
LE MARS        CLEAR     25  23  93 S3        29.98S
ORANGE CITY    CLEAR     27  27 100 W5        29.97S WCI  21
SHELDON        FOG       19  19 100 SW3       29.96R VSB 1/4
SIOUX CITY     CLOUDY    24  22  91 CALM      29.99F
SPENCER        PTCLDY    23  22  96 SW5       29.97S WCI  17
STORM LAKE     CLOUDY    30  27  86 SW6       29.96F WCI  24
$$

ABBREVIATIONS USED IN REMARKS
   TC - TEMPERATURE IN CELSIUS
  WCI - WIND CHILL INDEX
   HX - HEAT INDEX
  VSB - VISIBILITY





USA.gov is the U.S. government's official web portal to all federal, state and local government web resources and services.